Location: ????????
(44.4667°N, 135.9833°E)
Time: 04:45:19
(UTC+00:00)

Daily predictions for brighter satellites

Satellite Brightness Start Highest point End
(mag) Time Altitude Azimuth Time Altitude Azimuth Time Altitude Azimuth
NOSS 2-1 (E) 4.4 10:11:49 10° NNW 10:14:45 27° NE 10:18:19 10° ESE
Helios 1A Rocket 3.5 10:14:06 10° NE 10:16:42 22° E 10:19:16 10° SSE
Cosmos 2278 Rocket 2.4 10:11:14 10° NNW 10:16:56 83° WSW 10:22:35 10° SSE
Cosmos 2341 Rocket 4.0 10:11:14 10° S 10:17:26 69° E 10:23:44 10° NNE
CZ-4B R/B 4.3 10:14:00 10° ESE 10:18:45 29° ENE 10:23:34 10° N
NOSS 0 Rocket 4.4 10:13:15 10° SW 10:19:28 72° WNW 10:25:43 10° NNE
Cosmos 1869 Rocket 3.9 10:16:04 10° SSW 10:20:28 74° W 10:24:54 10° N
NOSS 2-1 (C) 4.1 10:17:30 10° NNW 10:20:37 34° NE 10:24:32 10° ESE
Cosmos 2366 rocket 4.0 10:17:02 10° S 10:23:08 71° E 10:29:15 10° NNE
USA 32 4.3 10:18:53 10° SSE 10:23:51 47° E 10:28:51 10° NNE
Cosmos 1346 Rocket 4.2 10:24:16 10° NNE 10:26:52 18° ENE 10:29:27 10° ESE
Cosmos 614 Rocket 4.1 10:24:34 10° NNW 10:29:42 62° ENE 10:34:44 10° SSE
Cosmos 1400 Rocket 2.9 10:26:23 10° SSE 10:29:46 41° E 10:33:13 10° NNE
COSMOS 2428 4.4 10:25:12 10° SW 10:30:31 39° NW 10:35:53 10° NNE
NOSS 3-4 (A) 3.7 10:26:01 10° SW 10:31:13 63° NW 10:36:58 10° NNE
NOSS 3-4 (C) 3.7 10:26:31 10° SW 10:31:44 63° NW 10:37:32 10° NNE
Cosmos 1125 Rocket 3.5 10:28:35 10° S 10:33:46 71° ESE 10:39:01 10° NNE
SL-4 R/B 3.7 10:33:43 10° SSE 10:35:04 12° SE 10:35:32 11° ESE
CSL-04 Debris 4.2 10:29:50 10° SSE 10:35:09 71° ENE 10:40:33 10° N
NOSS 8 (A) 4.2 10:33:02 10° NNW 10:35:56 64° NE 10:38:53 12° SE
Meteor 1-31 Rocket 2.5 10:33:10 10° SSE 10:36:38 62° ENE 10:40:08 10° N
BREEZE-M DEB (TANK) 3.5 10:36:09 10° WNW 10:38:11 27° N 10:40:36 10° ENE
OAO 2 Rocket 4.5 10:34:20 10° SW 10:38:39 27° S 10:42:23 12° ESE
ERS-1 Rocket 3.4 10:35:23 10° SE 10:40:06 45° ENE 10:44:52 10° N
SL-8 R/B 3.6 10:38:14 10° SW 10:42:55 67° SSE 10:47:36 10° ENE
RESURS DK-1 2.6 10:39:38 10° SW 10:43:33 69° WNW 10:47:30 10° NNE
SL-16 R/B 2.7 10:41:17 10° S 10:46:27 38° ESE 10:51:38 10° NE
Gblst 52 Del rocket 4.4 10:40:47 10° SW 10:46:37 86° SSE 10:53:19 10° ENE
BREEZE-M DEB (TANK) 4.4 10:53:53 10° W 10:55:44 15° SW 10:57:12 10° S
Cosmos 44 3.4 10:53:37 10° SSW 10:58:29 58° ESE 11:03:41 10° NE
Cosmos 1821 Rocket 4.0 10:52:29 10° S 10:58:46 87° E 11:05:11 10° N
Cosmos 1674 Rocket 3.7 10:55:38 10° N 10:59:54 55° ENE 11:03:25 15° SSE
Cosmos 1602 4.3 10:59:17 10° NNE 11:00:40 17° ENE 11:00:40 17° ENE
Okean-O 3.6 11:00:35 18° ESE 11:02:55 30° ENE 11:06:43 10° N
PAYLOAD B 4.2 10:58:44 10° SSE 11:04:12 81° ENE 11:09:44 10° NNW
Spot 2 Rocket 4.1 11:02:58 18° SE 11:06:08 38° ENE 11:10:44 10° N
Cosmos 1656 Rocket 3.6 11:00:50 10° NNW 11:06:19 76° ENE 11:10:37 17° SSE
Cosmos 1908 Rocket 4.0 11:04:07 15° SSE 11:07:22 39° E 11:11:23 10° NNE
Cosmos 1812 2.0 11:08:29 21° SW 11:09:17 38° W 11:10:53 10° N
SPOT 5 3.9 11:07:31 10° SSW 11:11:46 40° W 11:15:55 10° NNW
Okean O Rocket 2.3 11:09:41 22° ESE 11:11:52 37° ENE 11:15:52 10° N
Cosmos 405 Rocket 4.3 11:10:41 10° NE 11:11:49 13° ENE 11:11:49 13° ENE
Cosmos 1378 Rocket 3.7 11:07:54 10° NNW 11:12:16 73° W 11:16:35 10° S
USA 186 3.0 11:12:54 17° NE 11:12:54 17° NE 11:14:06 10° NNE
Cosmos 2237 Rocket 3.7 11:09:21 10° SW 11:14:41 40° WNW 11:20:03 10° NNE
USA 59 Rocket 0.5 11:13:13 10° NW 11:16:43 51° SW 11:20:00 17° SSE
Cosmos 1000 Rocket 4.4 11:11:04 10° N 11:17:13 69° E 11:22:17 16° SSE
Meteor 2-16 Rocket 4.4 11:12:32 10° N 11:18:42 76° E 11:23:57 14° SSE
Terra 1.8 11:19:06 15° SSE 11:23:00 84° WSW 11:27:43 10° NNW
USA 234 3.2 11:17:36 10° NE 11:24:10 75° SE 11:30:43 10° SW
Cosmos 2150 Rocket 3.9 11:21:48 10° S 11:26:53 68° ESE 11:32:04 10° NNE
CZ-4 R/B 2.8 11:24:57 10° SSW 11:28:20 32° W 11:31:41 10° NNW
Cosmos 1025 Rocket 3.0 11:25:41 10° N 11:29:57 82° W 11:32:44 21° S
Gbstr 26 Del rocket 3.7 11:29:47 10° SSW 11:34:41 37° SE 11:35:43 33° ESE
Cosmos 2285 Rocket 3.9 11:28:58 10° SSW 11:35:18 75° ESE 11:41:39 10° NNE
BREEZE-M DEB (TANK) 3.8 11:34:41 10° WNW 11:37:09 37° N 11:41:22 13° ENE
Cosmos 2297 3.9 11:32:54 10° NNW 11:38:35 58° ENE 11:41:09 32° SE
Dummy Sat-01 4.4 11:38:08 38° S 11:39:24 78° E 11:43:03 10° N
Cosmos 2369 Rocket 2.2 11:38:04 10° NNW 11:43:40 71° ENE 11:46:05 35° SE
Cosmos 1300 Rocket 3.4 11:44:02 40° SSE 11:45:22 62° E 11:49:37 10° NNE
ASTEX 1 3.3 11:43:18 27° S 11:46:03 89° E 11:51:01 10° N
ADEOS 4.1 11:42:55 16° S 11:46:57 57° W 11:52:06 10° NNW
SPOT 3 Rocket 4.0 11:45:32 34° ESE 11:47:08 45° ENE 11:52:03 10° N
SL-08 R/B 4.4 11:43:43 10° N 11:49:58 87° E 11:53:45 26° S
Cosmos 2058 4.1 11:52:40 10° NNE 11:55:29 26° ENE 11:55:29 26° ENE
